Starlink 32959

operational
NORAD ID: 63569 Int'l Des: 2025-076 Owner: SPXS Country: US Constellation: starlink
LEOCIRCULAR

关于 Starlink 32959

正在加载描述...

实时位置

正在加载3D地球...

即将过境

高度历史

Altitude vs Time

uPlot chart will show altitude changes over time

两行轨道根数

1 63569U 25076A 26035.59384245 .00031789 00000-0 11596-2 0 9997
2 63569 43.0040 152.5837 0001533 276.0201 84.0476 15.27584588 46724
Epoch: Feb 4, 2026 • Age: 26 hours

当前状态

高度 483.0 km
速度 7.63 km/s
星下点 -1.62°S, 49.92°W
发射日期 Apr 14, 2025
运行时间 0.8 years
类型 internet

技术详情

分类 Payload
质量 730.00 kg
干质量 700.00 kg
总质量 730.00 kg
长度 0.30 m
直径 4.10 m
跨度 29.00 m
形状 Box + pan
制造商 SPXS
平台类型 Starlink V2M
阶段状态 In Orbit
所有者/国家 SPXS/US

大型星座

Loading constellations...